QPF
0.00 0.00 0.00 0.00 0.00 0.00 0.00 0.00 0.00 0.00 0.00 0.00 0.00 0.00 0.00 0.00 0.00 0.01 0.03 0.02 0.02 0.01 0.00 0.00 0.00 0.00 0.00
0.00 0.00 0.00 0.00 0.00 0.00 0.00 0.00 0.00 0.00 0.00 0.00 0.00 0.00 0.00 0.00 0.00 0.00 0.00 0.01 0.00 0.00 0.00 0.00 0.00 0.00 0.00
0.00 0.00 0.00 0.00 0.00 0.00 0.00 0.00 0.00 0.00 0.00 0.00 0.00 0.00 0.00 0.00 0.00 0.00 0.00 0.01 0.01 0.00 0.00 0.00 0.00 0.00 0.00
0.00 0.00 0.00 0.00 0.00 0.00 0.00 0.00 0.00 0.00 0.00 0.00 0.00 0.00 0.00 0.00 0.00 0.00 0.00 0.00 0.01 0.01 0.00 0.00 0.00 0.00 0.00
0.00 0.00 0.00 0.00 0.00 0.00 0.00 0.00 0.00 0.00 0.00 0.00 0.00 0.00 0.00 0.00 0.00 0.00 0.00 0.00 0.00 0.00 0.00 0.00 0.00 0.00 0.00
0.00 0.00 0.00 0.00 0.00 0.00 0.00 0.00 0.00 0.00 0.00 0.00 0.00 0.00 0.00 0.00 0.00 0.00 0.00 0.00 0.00 0.00 0.00 0.00 0.00 0.00 0.00
0.00 0.00 0.00 0.00 0.00 0.00 0.00 0.00 0.00 0.00 0.00 0.00 0.00 0.00 0.00 0.00 0.00 0.00 0.00 0.00 0.00 0.00 0.00 0.00 0.00 0.00 0.00
0.00 0.00 0.00 0.00 0.00 0.00 0.00 0.00 0.00 0.00 0.00 0.00 0.00 0.00 0.00 0.00 0.00 0.00 0.00 0.00 0.00 0.00 0.00 0.00 0.00 0.00 0.00
0.00 0.00 0.00 0.00 0.00 0.00 0.00 0.00 0.00 0.00 0.00 0.00 0.00 0.00 0.00 0.00 0.00 0.00 0.00 0.00 0.00 0.00 0.00 0.00 0.00 0.00 0.00
0.00 0.00 0.00 0.00 0.00 0.00 0.00 0.00 0.00 0.00 0.00 0.00 0.00 0.00 0.00 0.00 0.00 0.00 0.00 0.00 0.00 0.00 0.00 0.00 0.00 0.00 0.00
0.00 0.00 0.00 0.00 0.00 0.00 0.00 0.00 0.00 0.00 0.00 0.00 0.00 0.00 0.00 0.00 0.00 0.00 0.00 0.00 0.00 0.00 0.00 0.00 0.00 0.00 0.00
0.00 0.00 0.00 0.00 0.00 0.00 0.00 0.00 0.00 0.00 0.00 0.00 0.00 0.00 0.00 0.00 0.00 0.00 0.00 0.00 0.00 0.00 0.00 0.00 0.00 0.00 0.00
0.00 0.00 0.00 0.00 0.00 0.00 0.00 0.00 0.00 0.00 0.00 0.00 0.00 0.00 0.00 0.00 0.00 0.00 0.00 0.00 0.00 0.00 0.00 0.00 0.00 0.00 0.00
0.00 0.00 0.00 0.00 0.00 0.00 0.00 0.00 0.00 0.00 0.00 0.00 0.00 0.00 0.00 0.00 0.00 0.00 0.00 0.00 0.00 0.00 0.00 0.00 0.00 0.00 0.00
0.00 0.00 0.00 0.00 0.00 0.00 0.00 0.00 0.00 0.00 0.00 0.00 0.00 0.00 0.00 0.00 0.00 0.00 0.00 0.00 0.00 0.00 0.00 0.00 0.00 0.00 0.00
0.00 0.00 0.00 0.00 0.00 0.00 0.00 0.00 0.00 0.00 0.00 0.00 0.00 0.00 0.00 0.00 0.00 0.00 0.00 0.00 0.00 0.00 0.00 0.00 0.00 0.00 0.00
0.00 0.00 0.00 0.00 0.00 0.00 0.00 0.00 0.00 0.00 0.00 0.00 0.00 0.00 0.00 0.00 0.00 0.00 0.00 0.00 0.00 0.00 0.00 0.00 0.00 0.00 0.00
MSLP
1021.74 1021.74 1022.22 1022.44 1022.62 1022.96 1023.00 1023.35 1023.60 1023.74 1023.89 1024.04 1024.34 1024.71 1024.88 1025.05 1025.33 1025.44 1025.63 1025.76 1025.90 1026.12 1026.59 1026.78 1027.31 1027.90 1028.24
1021.39 1021.67 1021.79 1021.98 1022.09 1022.38 1022.56 1022.73 1022.90 1023.07 1023.24 1023.44 1023.72 1023.96 1024.18 1024.38 1024.63 1024.79 1024.97 1025.23 1025.39 1025.57 1025.82 1026.26 1026.49 1027.08 1027.63
1020.71 1021.07 1021.34 1021.58 1021.99 1022.19 1022.32 1022.43 1022.32 1022.50 1022.68 1022.88 1023.06 1023.21 1023.40 1023.62 1023.84 1024.13 1024.38 1024.60 1024.82 1025.13 1025.25 1025.64 1026.15 1026.62 1027.09
1020.33 1020.70 1020.94 1021.15 1021.44 1021.78 1022.08 1022.09 1022.16 1022.15 1022.32 1022.45 1022.66 1022.75 1022.82 1023.03 1023.29 1023.53 1023.66 1023.90 1024.17 1024.37 1024.79 1025.17 1025.63 1026.11 1026.61
1019.77 1020.25 1020.53 1020.87 1020.82 1021.08 1021.45 1021.65 1021.70 1021.68 1022.01 1022.12 1022.25 1022.32 1022.41 1022.54 1022.72 1022.81 1023.03 1023.28 1023.45 1023.71 1024.10 1024.58 1025.09 1025.54 1026.14
1018.79 1019.28 1019.34 1019.69 1020.06 1020.34 1020.80 1021.46 1021.79 1021.07 1021.60 1021.56 1021.71 1021.90 1021.96 1022.16 1022.17 1022.29 1022.52 1022.69 1022.88 1023.16 1023.53 1023.98 1024.57 1025.20 1025.85
1017.52 1018.06 1018.29 1018.48 1019.00 1019.62 1019.99 1020.36 1020.47 1020.76 1021.17 1021.48 1021.62 1021.70 1021.68 1021.79 1021.87 1021.85 1022.05 1022.20 1022.43 1022.67 1023.09 1023.65 1024.22 1024.88 1025.57
1016.81 1017.04 1017.43 1017.74 1018.09 1018.44 1019.05 1019.72 1020.24 1020.48 1020.67 1021.33 1021.45 1021.63 1021.74 1021.79 1021.87 1021.56 1021.60 1021.81 1022.02 1022.28 1022.74 1023.26 1023.91 1024.56 1025.05
1016.03 1016.49 1016.91 1017.21 1017.65 1018.25 1019.06 1019.87 1020.21 1020.38 1020.51 1020.78 1021.43 1021.74 1021.96 1021.87 1021.85 1021.79 1021.70 1021.61 1021.77 1022.06 1022.50 1023.07 1023.60 1024.09 1024.61
1015.99 1016.33 1016.62 1016.89 1017.28 1017.64 1018.26 1019.01 1019.62 1020.26 1020.11 1020.44 1021.39 1021.74 1022.11 1022.04 1022.01 1021.95 1022.01 1021.77 1021.62 1021.89 1022.29 1022.69 1023.11 1023.70 1024.41
1015.31 1015.77 1016.22 1016.56 1016.92 1017.25 1017.60 1018.08 1018.76 1019.10 1019.25 1019.70 1020.94 1021.52 1021.74 1021.99 1022.08 1022.13 1022.17 1022.05 1021.96 1021.67 1021.85 1022.15 1022.61 1023.34 1024.19
1014.98 1015.52 1015.93 1016.35 1016.91 1017.35 1017.71 1018.19 1018.45 1018.52 1018.86 1019.36 1020.14 1020.56 1021.22 1021.92 1022.08 1022.24 1022.26 1022.26 1022.26 1022.15 1022.14 1022.22 1022.52 1022.99 1023.48
1014.74 1015.37 1015.76 1016.15 1017.11 1017.72 1018.26 1018.59 1018.96 1019.22 1019.35 1019.56 1019.70 1020.25 1020.79 1021.16 1021.56 1021.95 1022.10 1022.19 1022.32 1022.40 1022.56 1022.69 1022.88 1023.10 1023.55
1014.40 1015.25 1015.90 1016.45 1017.12 1017.49 1018.36 1018.70 1019.17 1019.95 1020.00 1019.88 1019.86 1020.02 1020.64 1021.01 1021.20 1021.64 1021.76 1021.99 1022.15 1022.31 1022.52 1022.79 1022.99 1023.15 1023.44
1014.50 1015.21 1015.89 1016.49 1017.02 1017.44 1017.85 1018.50 1019.01 1019.62 1020.07 1020.29 1020.45 1020.48 1020.60 1020.74 1021.16 1021.27 1021.56 1021.93 1021.99 1022.27 1022.73 1022.92 1023.04 1023.14 1023.33
1014.53 1015.11 1015.72 1016.28 1016.88 1017.54 1017.81 1018.16 1018.72 1019.40 1019.90 1020.44 1020.76 1020.99 1021.03 1021.04 1020.93 1021.03 1021.51 1021.81 1022.03 1022.28 1022.58 1022.95 1022.95 1022.73 1022.81
1014.87 1015.42 1015.94 1016.53 1017.12 1017.44 1017.81 1018.27 1018.86 1019.36 1019.85 1020.30 1020.70 1020.82 1021.03 1021.15 1021.21 1021.00 1021.24 1021.70 1022.06 1022.38 1022.50 1022.70 1022.73 1022.37 1022.32
Thickness
5594 5594 5590 5588 5587 5584 5584 5581 5577 5575 5572 5570 5567 5563 5559 5556 5550 5546 5542 5538 5533 5529 5522 5519 5511 5503 5497
5586 5585 5585 5583 5581 5578 5577 5576 5574 5571 5569 5567 5563 5559 5555 5552 5547 5543 5539 5533 5529 5524 5518 5512 5507 5499 5490
5582 5579 5579 5577 5574 5572 5572 5569 5569 5566 5564 5562 5558 5555 5552 5548 5543 5539 5534 5529 5524 5519 5514 5507 5499 5492 5485
5573 5571 5571 5570 5569 5569 5565 5563 5561 5560 5559 5557 5552 5549 5548 5543 5538 5533 5529 5525 5520 5515 5508 5501 5494 5486 5478
5568 5565 5564 5561 5564 5560 5559 5556 5556 5555 5551 5549 5547 5545 5541 5536 5532 5528 5524 5519 5515 5510 5503 5496 5488 5480 5472
5566 5564 5565 5563 5558 5556 5555 5549 5548 5551 5544 5544 5540 5538 5534 5530 5526 5521 5517 5513 5508 5503 5496 5489 5481 5472 5464
5564 5561 5560 5559 5555 5550 5549 5547 5548 5543 5537 5534 5530 5528 5525 5521 5518 5515 5510 5506 5501 5495 5488 5480 5473 5464 5455
5556 5556 5554 5552 5550 5548 5543 5539 5536 5533 5530 5525 5521 5519 5515 5512 5508 5506 5501 5497 5492 5487 5479 5472 5464 5456 5449
5550 5547 5544 5543 5541 5536 5531 5525 5523 5521 5519 5517 5510 5506 5502 5500 5497 5494 5491 5487 5482 5476 5470 5463 5456 5448 5442
5537 5536 5535 5533 5531 5529 5525 5520 5514 5509 5509 5506 5496 5493 5489 5487 5484 5482 5478 5475 5472 5466 5460 5454 5448 5442 5435
5530 5528 5526 5524 5522 5519 5517 5513 5506 5505 5503 5497 5486 5481 5479 5476 5472 5468 5465 5462 5460 5457 5453 5448 5443 5436 5428
5518 5516 5516 5514 5509 5506 5504 5500 5498 5496 5492 5488 5480 5476 5470 5463 5461 5455 5453 5450 5448 5446 5443 5438 5433 5428 5422
5506 5502 5501 5499 5494 5491 5486 5484 5480 5478 5476 5473 5470 5465 5460 5457 5452 5445 5443 5440 5437 5433 5430 5426 5422 5418 5411
5494 5489 5486 5483 5480 5477 5471 5468 5465 5459 5457 5457 5456 5454 5449 5444 5442 5436 5434 5432 5426 5423 5418 5414 5409 5406 5401
5478 5475 5471 5468 5464 5462 5460 5455 5453 5447 5443 5440 5439 5438 5436 5434 5430 5427 5423 5418 5415 5411 5405 5401 5398 5394 5390
5463 5460 5457 5454 5451 5446 5445 5444 5441 5434 5430 5425 5423 5421 5420 5418 5417 5415 5410 5406 5402 5399 5393 5387 5384 5384 5379
5444 5442 5440 5437 5435 5433 5431 5428 5424 5420 5417 5413 5410 5410 5409 5409 5402 5401 5399 5393 5388 5383 5379 5374 5369 5370 5368